This is the latest recevied weather packets stored in our database for station/object KC9DRE. If no packets are shown the sender has not sent any weather packets the latest 10 day(s).
| Time | Temp. | Humidity | Pressure | Rain* | Wind** | Luminosity | Snow |
|---|---|---|---|---|---|---|---|
| 1777681605 | 11.11° C | 57% | 1016.6 hPa | 0 mm | - | 8 W/m² | - |
| 1777681304 | 11.11° C | 56% | 1016.5 hPa | 0 mm | - | 11 W/m² | - |
| 1777681001 | 11.67° C | 53% | 1016.2 hPa | 0 mm | - | 14 W/m² | - |
| 1777680698 | 12.22° C | 52% | 1016.2 hPa | 0 mm | - | 17 W/m² | - |
| 1777680396 | 12.22° C | 50% | 1015.8 hPa | 0 mm | - | 21 W/m² | - |
| 1777680093 | 12.78° C | 49% | 1015.8 hPa | 0 mm | - | 24 W/m² | - |
| 1777679789 | 12.78° C | 49% | 1015.7 hPa | 0 mm | - | 28 W/m² | - |
| 1777679485 | 13.33° C | 48% | 1015.4 hPa | 0 mm | - | 33 W/m² | - |
| 1777679181 | 13.33° C | 48% | 1015.1 hPa | 0 mm | - | 36 W/m² | - |
| 1777678878 | 13.33° C | 46% | 1015 hPa | 0 mm | - | 43 W/m² | - |
| 1777678576 | 13.33° C | 46% | 1014.9 hPa | 0 mm | - | 50 W/m² | - |
| 1777678274 | 13.33° C | 46% | 1015.1 hPa | 0 mm | - | 67 W/m² | - |
| 1777677969 | 14.44° C | 43% | 1015.3 hPa | 0 mm | - | 43 W/m² | - |
| 1777677667 | 14.44° C | 45% | 1015.2 hPa | 0 mm | - | 74 W/m² | - |
| 1777677364 | 14.44° C | 43% | 1015.3 hPa | 0 mm | - | 88 W/m² | - |
| 1777677062 | 14.44° C | 46% | 1015.5 hPa | 0 mm | - | 99 W/m² | - |
| 1777676761 | 14.44° C | 49% | 1015.4 hPa | 0 mm | - | 69 W/m² | - |
| 1777676458 | 13.89° C | 49% | 1015.7 hPa | 0 mm | - | 161 W/m² | - |
| 1777676156 | 13.89° C | 50% | 1015.8 hPa | 0 mm | - | 87 W/m² | - |
| 1777675852 | 14.44° C | 49% | 1015.7 hPa | 0 mm | - | 67 W/m² | - |
| 1777675549 | 14.44° C | 45% | 1015.7 hPa | 0 mm | - | 70 W/m² | - |
| 1777675246 | 14.44° C | 48% | 1015.3 hPa | 0 mm | - | 145 W/m² | - |
| 1777674943 | 14.44° C | 47% | 1015.4 hPa | 0 mm | - | 104 W/m² | - |
| 1777674640 | 15.56° C | 45% | 1015.3 hPa | 0 mm | - | 95 W/m² | - |
| 1777674339 | 15.56° C | 45% | 1015.3 hPa | 0 mm | - | 291 W/m² | - |
* Rain latest hour (hover to see other rain measurements)
** Current wind speed in m/s (hover to see current wind gust speed)